Location: Lafig�re
(44.4503°N, 4.0357°E)
Time: 15:29:59
(UTC+00:00)

Vanguard 2 Rocket - Pass Details

Date: 23 June 2021
Orbit: 555 x 3325 km, 32.9° (Epoch: 28 July)

Event Time Altitude Azimuth Distance (km) Brightness Sun altitude
Rises 22:30:41 0° 274° (W) 7,190 11.8 -20.0°
Reaches altitude 10° 22:36:18 10° 268° (W) 5,949 11.2 -20.3°
Maximum altitude 22:51:23 38° 209° (SSW) 3,140 9.2 -21.0°
Enters shadow 22:56:07 29° 171° (S) 3,123 9.0 -21.2°
